Location: Elaine Barite Prospect
(34.1431°N, 106.7922°W)
Time: 11:37:59
(UTC+00:00)

Cosmos-2242 - Pass Details

Date: 13 December 2025
Orbit: 566 x 591 km, 82.5° (Epoch: 14 January)

Event Time Altitude Azimuth Distance (km) Brightness Sun altitude
Exits shadow 12:44:06 13° 344° (NNW) 1,718 5.0 -16.2°
Maximum altitude 12:47:45 58° 266° (W) 677 2.9 -15.5°
Drops below altitude 10° 12:51:48 10° 188° (S) 1,873 5.7 -14.7°
Sets 12:53:59 0° 184° (S) 2,763 6.6 -14.2°
